Regional Weather Roundup
Issued by NWS

Home | Current Version | Previous Version | Text Only | Print | Product List | Glossary Off
Versions: 1 2 3 4 5 6 7 8 9 10 11 12 13 14 15 16 17 18 19 20 21 22 23 24 25 26 27 28 29 30 31 32 33 34 35 36 37 38 39 40 41 42 43 44 45 46 47 48 49 50

029
ASUS45 KTFX 191710
RWRMT
MONTANA REGIONAL WEATHER ROUNDUP
NATIONAL WEATHER SERVICE GREAT FALLS MT
1000 AM MST THU JAN 19 2017

NOTE: "FAIR" INDICATES FEW OR NO CLOUDS BELOW 12000 FEET WITH NO
SIGNIFICANT WEATHER AND/OR OBSTRUCTIONS TO VISIBILITY.

MTZ001>007-043-191800-
WEST OF THE DIVIDE

CITY           SKY/WX    TMP DP  RH WIND       PRES   REMARKS
KALISPELL      CLOUDY    28  27  96 CALM      29.54R FOG
MISSOULA       CLOUDY    30  28  93 CALM      29.59R
BUTTE          CLOUDY    25  19  78 CALM      29.57S
MULLAN PASS    LGT SNOW  31  27  85 VRB3      29.53R VSB 1
ANACONDA         N/A     37  25  60 SE10      29.55S WCI  30
DEER LODGE       N/A     36  28  75 SW6       29.58R WCI  31
EUREKA           N/A     39  34  81 SE8       29.52R
HAMILTON         N/A     34  30  86 NW3       29.56R
PLAINS           N/A     29  24  81 CALM      29.62R VSB 1
RONAN            N/A     31  29  92 CALM      29.63R
$$

MTZ008-052>055-191800-
SOUTHWEST MONTANA

CITY           SKY/WX    TMP DP  RH WIND       PRES   REMARKS
BOZEMAN        CLOUDY    30  24  78 S5        29.60R
DILLON         CLOUDY    38  22  52 S8        29.60R
W YELLOWSTONE  LGT SNOW  19  18  93 CALM      29.70S
ENNIS          PTSUNNY   34  25  69 S23       29.65F WCI  22
$$

MTZ009-010-012-014-046-048-049-054-191800-
EAST SLOPES AND CENTRAL MONTANA

CITY           SKY/WX    TMP DP  RH WIND       PRES   REMARKS
CUT BANK       CLOUDY    40  30  67 SW13      29.42R
MALMSTROM AFB  CLOUDY    41  30  65 SW14      29.48R
HELENA         CLOUDY    28  21  75 CALM      29.56S
AUGUSTA        PTSUNNY   37  30  77 SW8       29.47R WCI  30
BOWMANS CRNR   PTSUNNY   35  27  74 S23       29.46S WCI  22
CHOTEAU          N/A     41  30  65 W3        29.47S
CONRAD           N/A     34  32  92 CALM      29.51R
POWER            N/A     38  29  72 SW17      29.46R WCI  28
RAYNESFORD     CLOUDY    44  27  52 SW3       29.49R
ULM            PTSUNNY   40  29  65 MISG      29.50R
$$

MTZ011-013-016-021-045-047-050-051-191800-
NORTH CENTRAL MONTANA

CITY           SKY/WX    TMP DP  RH WIND       PRES   REMARKS
HAVRE          MOSUNNY   39  31  72 SW8       29.44R
LEWISTOWN      CLOUDY    37  28  70 E7        29.48R WCI  32
CHINOOK          N/A     34  30  86 CALM      29.44S
DENTON         PTSUNNY   41  30  65 SW17G30   29.43S
FORT BENTON      N/A     46  28  49 MISG      29.47R
GEYSER         PTSUNNY   43  28  54 W15G25    29.46R
GRASS RANGE    PTSUNNY   45  29  55 SW15      29.44S
JUDITH GAP     PTSUNNY   39  28  65 NW7       29.49R
ROY            PTSUNNY   47  31  53 MISG      29.44S
STANFORD       CLOUDY    42  29  60 CALM      29.47R
WINIFRED         N/A     44  29  55 SW12      29.46R
$$

MTZ017>020-022>027-061-062-191800-
NORTHEAST MONTANA

CITY           SKY/WX    TMP DP  RH WIND       PRES   REMARKS
GLASGOW          N/A     23  18  81 MISG      29.45S
JORDAN           N/A     28  23  81 CALM      29.46R
SIDNEY         CLOUDY    21  17  84 S13       29.50S WCI   9
WOLF POINT     CLOUDY    17  14  88 SE3       29.49S FOG
PLENTYWOOD       N/A     27  21  80 CALM      29.46F
POPLAR           N/A     21  16  79 CALM      29.50R
$$

MTZ028>42-056>058-191800-
SOUTHCENTRAL AND SOUTHEAST MONTANA

CITY           SKY/WX    TMP DP  RH WIND       PRES   REMARKS
BAKER          CLOUDY    20  14  77 CALM      29.52R
BILLINGS       MOSUNNY   34  21  59 SW12      29.53R WCI  25
LIVINGSTON     CLOUDY    42  25  50 SW28G37   29.57R
MILES CITY     CLOUDY    21  14  74 SE13      29.51S WCI   9
BIG TIMBER     MOSUNNY   41  25  52 W24       29.55F
EKALAKA          N/A     36  18  48 S3        29.54
FORSYTH          N/A     25  18  74 CALM      29.50R
HARLOWTON      PTSUNNY   41  26  54 W17       29.49S
LAUREL           N/A     32  17  54 S5        29.56R
ROUNDUP          N/A     39  23  53 S10       29.46S
$$

REGIONAL REPORTS...DAKOTAS

CITY           SKY/WX    TMP DP  RH WIND       PRES   REMARKS
WILLISTON      CLOUDY    23  17  78 SW5       29.51R
MINOT          CLOUDY    35  26  69 SW9       29.47S WCI  28
DICKINSON      CLOUDY    29  19  66 CALM      29.47S
BEACH            N/A     23  18  80 SE3       29.53S
CROSBY           N/A     27  23  86 SW22      29.48S WCI  12
TIOGA            N/A     25  25 100 SW3       29.50S
WATFORD CITY     N/A     21  18  86 CALM      29.50S
BISMARCK       CLOUDY    18  11  74 CALM      29.54R
GRAND FORKS    CLOUDY    25  21  85 S20       29.58F FOG     WCI  11
FARGO          CLOUDY    33  31  92 S10       29.63R WCI  25
BUFFALO SD       N/A     31  19  61 NW7       29.44R WCI  24
RAPID CITY     CLOUDY    41  24  51 N7        29.49S
$$

REGIONAL REPORTS...WYOMING/IDAHO/WASHINGTON

CITY           SKY/WX    TMP DP  RH WIND       PRES   REMARKS
GILLETTE       CLOUDY    41  21  44 SW28G38   29.47F
SHERIDAN       SUNNY     25  18  74 MISG      29.52S
BUFFALO WY     CLOUDY    48  19  31 NW13      29.52R
CODY           CLOUDY    45  25  45 W13G22    29.57F
YELLOWSTONE LA   N/A     24  22  91 CALM      29.70S
IDAHO FALLS    SNOW      27  26  96 CALM      29.74S VSB 1/2
SALMON         CLOUDY    21  18  86 CALM      29.66R
BOISE          CLOUDY    38  33  82 SE12      29.66R WCI  30
SPOKANE        CLOUDY    36  32  85 S7        29.57R WCI  30
$$

REGIONAL REPORTS...ALBERTA

CITY           SKY/WX    TMP DP  RH WIND       PRES   REMARKS
EDMONTON       MOCLDY    30  19  64 S2        29.21S
CALGARY        MOCLDY    36  28  75 VRB2      29.25S
LETHBRIDGE     PTSUNNY   37  32  81 SW8       29.35S WCI  31
MEDICINE HAT   PTSUNNY   41  34  75 S10       29.35R
WATERTON GATE    N/A     43  27  52 SW16G24     N/A
CARDSTON         N/A     41  28  60 SW9         N/A
MILK RIVER       N/A     39  32  75 SW14G20     N/A  WCI  31
ONEFOUR          N/A     32  28  86 E6          N/A  WCI  26
$$

REGIONAL REPORTS...SASKATCHEWAN

CITY           SKY/WX    TMP DP  RH WIND       PRES   REMARKS
SWIFT CURRENT  CLOUDY    43  32  65 SW18      29.36R
REGINA         PTSUNNY   34  28  80 SE3       29.40F
SASKATOON      PTSUNNY   34  30  86 S6        29.35S WCI  29
CYPRESS HILLS    N/A     34  27  75 S6          N/A  WCI  29
VAL MARIE        N/A     27  23  86 N1          N/A
ROCKGLEN         N/A     39  30  70 S5          N/A
ASSINIBOIA       N/A     30  25  80 SE2         N/A
$$




USA.gov is the U.S. government's official web portal to all federal, state and local government web resources and services.